URSA MAIOR
1 42776U 17036M 22062.85752693 .00004514 00000-0 18652-3 0 9999
2 42776 97.2143 105.2201 0012145 346.7068 13.3848 15.24420818260710
Max Valier Sat
1 42778U 17036P 22062.88349363 .00004225 00000-0 17124-3 0 9992
2 42778 97.2214 107.6666 0010676 348.7548 11.3451 15.25125664260804
Pegasus
1 42784U 17036V 22062.91630831 .00006132 00000-0 23787-3 0 9997
2 42784 97.2152 108.3674 0010305 351.1745 8.9311 15.26419916260900
NUDATSat
1 42787U 17036Y 22062.91028222 .00009896 00000-0 34764-3 0 9992
2 42787 97.2206 111.8020 0009362 341.9056 18.1848 15.29539661260945
SUCHAI 1
1 42788U 17036Z 22062.68672587 .00007260 00000-0 27102-3 0 9997
2 42788 97.2161 109.5336 0009590 347.7352 12.3653 15.27637665261027
SKCUBE
1 42789U 17036AA 22062.70761429 .00006544 00000-0 24799-3 0 9998
2 42789 97.2158 109.1187 0009602 348.7303 11.3720 15.27177396260927
VZLUSAT 1
1 42790U 17036AB 22062.64983112 .00009327 00000-0 32858-3 0 9995
2 42790 97.2187 111.5299 0008491 342.2430 17.8513 15.29473190261056
VENTA 1
1 42791U 17036AC 22062.90768725 .00005873 00000-0 22478-3 0 9995
2 42791 97.2156 109.2665 0009306 348.9827 11.1207 15.26894000260941
Robusta 1B
1 42792U 17036AD 22062.69378259 .00006947 00000-0 26018-3 0 9998
2 42792 97.2156 109.6003 0009153 349.2763 10.8280 15.27547289260969
D-SAT
1 42794U 17036AF 22062.74388435 .00001510 00000-0 13263-3 0 9992
2 42794 97.4544 73.7613 0126070 79.1954 282.3427 14.92053539255718
TechnoSat
1 42829U 17042E 22062.83654781 .00000751 00000-0 80021-4 0 9991
2 42829 97.4354 283.0646 0014272 6.9565 353.1850 14.91558310252343
QIKCOM-1
1 42983U 98067NF 22062.21237130 .00041419 00000-0 24729-3 0 9993
2 42983 51.6366 17.0429 0001654 188.2603 171.8370 15.77458476248074
AO-91
1 43017U 17073E 22062.69882428 .00002114 00000-0 16499-3 0 9992
2 43017 97.6878 321.2120 0251926 173.5444 186.9121 14.80459109231461
PICSAT
1 43132U 18004X 22062.72848455 .00006905 00000-0 25278-3 0 9998
2 43132 97.3817 139.8938 0008585 22.6444 337.5172 15.28318148230249
AO-92
1 43137U 18004AC 22062.87441137 .00005470 00000-0 20809-3 0 9996
2 43137 97.3786 139.1184 0008650 25.6865 334.4802 15.27142300230226
TianYi 2
1 43155U 18008A 22062.85948551 .00003729 00000-0 20968-3 0 9991
2 43155 97.3687 124.6986 0017647 146.7499 326.4640 15.13749946227297
Zhou Enlai
1 43156U 18008B 22062.85733619 .00004083 00000-0 23147-3 0 9995
2 43156 97.3733 124.5485 0014710 146.1419 334.5006 15.13436982227229
TianYi 6
1 43158U 18008D 22062.78013846 .00003570 00000-0 20731-3 0 9998
2 43158 97.3673 122.6497 0013587 145.8528 346.7193 15.12667514227121
S-Net D
1 43186U 18014G 22062.73269978 .00001151 00000-0 10377-3 0 9998
2 43186 97.6651 330.4877 0009744 295.9326 64.0891 14.97450632223095
S-Net B
1 43187U 18014H 22062.73273524 .00001157 00000-0 10432-3 0 9999
2 43187 97.6649 330.4441 0009742 295.8102 64.2114 14.97449586223095
S-Net A
1 43188U 18014J 22062.73296594 .00001161 00000-0 10465-3 0 9993
2 43188 97.6653 330.5017 0009733 295.9550 64.0669 14.97448870223097
S-Net C
1 43189U 18014K 22062.73354217 .00001060 00000-0 95980-4 0 9995
2 43189 97.6648 330.4349 0009715 295.7168 64.3050 14.97446856221640
FMN 1
1 43192U 18015A 22062.85988530 .00014924 00000-0 47675-3 0 9994
2 43192 97.5174 205.7124 0013001 47.5648 107.3175 15.32483542227242
Shaonian Xing
1 43199U 18015H 22062.91918931 .00009811 00000-0 33362-3 0 9993
2 43199 97.4956 201.7721 0015318 57.8764 60.8529 15.30544629227283
SurfSat
1 43614U 18070B 22062.90265469 .00019017 00000-0 37077-3 0 9992
2 43614 93.0223 54.2411 0015866 78.2302 282.0736 15.47333597194700
CP-7 DAVE
1 43615U 18070C 22062.91901896 .00018221 00000-0 36216-3 0 9995
2 43615 93.0224 54.1555 0016120 78.4543 281.8524 15.46773959194681
ELFIN-B
1 43616U 18070D 22062.69314822 .00031856 00000-0 50772-3 0 9990
2 43616 93.0157 54.7562 0015251 74.3951 285.8993 15.53008767194874
ELFIN-A
1 43617U 18070E 22062.92576274 .00032223 00000-0 49570-3 0 9991
2 43617 93.0229 55.9970 0014291 71.2946 288.9866 15.54004186194947
CubeBel-1
1 43666U 18083E 22062.81827598 .00005573 00000-0 25306-3 0 9994
2 43666 97.4339 92.7976 0013484 351.1034 95.5059 15.21112752185418
Changshagaoxin
1 43669U 18083H 22062.84330028 .00004902 00000-0 23235-3 0 9991
2 43669 97.4266 89.1190 0009726 350.5914 182.1853 15.19727023185259
Ten-Koh
1 43677U 18084G 22062.91012797 .00000918 00000-0 99239-4 0 9990
2 43677 97.9464 192.1409 0014696 258.5612 101.3955 14.90751613181954
PO-101
1 43678U 18084H 22062.82573218 .00000258 00000-0 31252-4 0 9999
2 43678 97.9512 194.9853 0008610 277.1711 82.8511 14.91939054182105
IRVINE 01
1 43693U 18088D 22062.92342986 .00017702 00000-0 59485-3 0 9996
2 43693 85.0349 21.9575 0016721 133.9626 226.3003 15.30572572184042
QO-100
1 43700U 18090A 22062.88054595 .00000127 00000-0 00000-0 0 9998
2 43700 0.0115 128.1666 0002318 245.9469 130.2658 1.00272994 11973
Reaktor Hello World
1 43743U 18096AA 22062.75424416 .00006898 00000-0 23080-3 0 9997
2 43743 97.3611 143.2664 0017434 78.1298 282.1897 15.31146781181778
MinXSS-2
1 43758U 18099A 22062.90588206 .00001127 00000-0 10374-3 0 9993
2 43758 97.6360 133.3692 0014108 258.8048 101.1589 14.96646792177314
AO-95
1 43770U 18099N 22062.85195452 .00001387 00000-0 12915-3 0 9999
2 43770 97.6333 131.9312 0013024 269.1839 90.7890 14.95825191177229
RANGE-B
1 43772U 18099Q 22062.81780560 .00002185 00000-0 19822-3 0 9998
2 43772 97.6440 133.3432 0012387 254.6507 105.3346 14.96287899177239
RANGE-A
1 43773U 18099R 22062.75128186 .00000870 00000-0 83373-4 0 9994
2 43773 97.6265 130.8664 0011924 255.8562 104.1334 14.95590203177198
MOVE-II
1 43780U 18099Y 22062.88862922 .00001979 00000-0 17796-3 0 9995
2 43780 97.6370 132.8663 0011580 264.5047 95.4854 14.96748584177262
SNUSat 2
1 43782U 18099AA 22062.71160129 .00001138 00000-0 10635-3 0 9991
2 43782 97.6333 132.2245 0011370 254.1169 105.8800 14.96028537177222
SnugLite
1 43784U 18099AC 22062.89617469 .00000961 00000-0 90220-4 0 9998
2 43784 97.6299 132.0664 0013474 262.2015 97.7677 14.96200375177273
ITASat 1
1 43786U 18099AE 22062.79163635 .00001346 00000-0 12475-3 0 9993
2 43786 97.6355 132.7278 0013682 261.3461 98.6210 14.96052883177252
EAGLET 1
1 43790U 18099AJ 22062.90327409 .00000376 00000-0 38277-4 0 9993
2 43790 97.6349 133.3448 0011933 265.8812 94.1046 14.96334043177004
ESEO
1 43792U 18099AL 22062.73784523 .00001040 00000-0 97773-4 0 9995
2 43792 97.6308 132.5366 0011662 262.5588 97.4308 14.95954024177029
CSIM
1 43793U 18099AM 22062.84235286 .00001730 00000-0 15361-3 0 9993
2 43793 97.6361 133.5985 0011812 256.0179 103.9730 14.97394420177075
Astrocast 0.1
1 43798U 18099AS 22062.73532008 .00001914 00000-0 17216-3 0 9993
2 43798 97.6359 133.5193 0011030 240.4423 119.5700 14.96780110177297
JO-97
1 43803U 18099AX 22062.70559344 .00001194 00000-0 11022-3 0 9998
2 43803 97.6320 132.3824 0013659 261.7814 98.1859 14.96410175177253
Suomi 100
1 43804U 18099AY 22062.85171789 .00001389 00000-0 12763-3 0 9997
2 43804 97.6311 132.4649 0013749 260.8215 99.1452 14.96350059177282
Al Farabi 2
1 43805U 18099AZ 22062.80490931 .00002209 00000-0 19803-3 0 9990
2 43805 97.6333 132.8007 0013462 259.0595 100.9114 14.96723415177299
CHOMPTT
1 43855U 18104G 22062.90717283 .00004743 00000-0 18457-3 0 9994
2 43855 85.0350 121.4200 0013972 266.9433 93.0213 15.25636642178625
ISAT
1 43879U 18111D 22062.69748692 .00002469 00000-0 21792-3 0 9991
2 43879 97.6738 330.2359 0011714 322.2301 37.8098 14.97261427173846
UWE-4
1 43880U 18111E 22062.71356444 .00001374 00000-0 12289-3 0 9991
2 43880 97.6763 330.8855 0011323 322.7768 37.2668 14.97461877173872
Sparrow
1 43881U 18111F 22062.73930819 .00001932 00000-0 17039-3 0 9996
2 43881 97.6761 331.1017 0011291 317.4500 42.5847 14.97546065173886
Lume 1
1 43908U 18111AJ 22062.63879363 .00006019 00000-0 22056-3 0 9997
2 43908 97.2067 313.8537 0021396 90.8351 269.5341 15.28142682177222
FO-98
1 43933U 19003B 22062.85250744 .00095009 00000-0 19519-2 0 9992
2 43933 97.1508 101.3077 0011246 171.5282 188.6160 15.45586561173842
FO-99
1 43937U 19003F 22062.88976548 .00006688 00000-0 24590-3 0 9997
2 43937 97.1450 100.4746 0022387 166.4892 193.6952 15.27967496173848
MYSat 1
1 44045U 18092F 22062.73865832 .00021663 00000-0 44299-3 0 9990
2 44045 51.6339 236.6094 0008000 72.7170 287.4692 15.46036572171475
AstroCast 0.2
1 44083U 19018F 22062.70386586 .00006448 00000-0 26307-3 0 9996
2 44083 97.3373 123.6813 0013339 137.3078 222.9199 15.24684628162363
AISTechSat 3
1 44103U 19018AB 22062.89091168 .00004958 00000-0 19704-3 0 9995
2 44103 97.3237 124.2958 0013630 143.7166 216.4999 15.25678273162541
AISat 1
1 44104U 19018AC 22062.79362404 .00005364 00000-0 15942-3 0 9991
2 44104 97.4016 145.6468 0055267 149.8463 210.5981 15.33664985163394
Prox-1
1 44339U 19036A 22062.61489681 .00002502 00000-0 52960-3 0 9991
2 44339 23.9995 141.2337 0010964 132.5694 227.5724 14.54285556142925
Oculus-ASR
1 44348U 19036K 22062.70047134 .00053135 00000-0 61575-3 0 9994
2 44348 28.5091 195.5448 0281189 214.6331 143.5655 15.25092695148326
Armadillo
1 44352U 19036P 22062.60401124 .00076912 -51994-5 67773-3 0 9999
2 44352 28.5274 146.0255 0215831 292.6412 65.1496 15.42690565148767
NO-104
1 44354U 19036R 22062.68804835 .00051847 00000-0 57846-3 0 9991
2 44354 28.5253 184.4422 0273647 229.8200 127.8138 15.27326244148430
NO-103
1 44355U 19036S 22062.37641277 .00165447 10052-5 82740-3 0 9993
2 44355 28.5206 77.2049 0132965 45.4246 315.7129 15.68429536149478
Move-IIb
1 44398U 19038N 22062.90095373 .00006457 00000-0 33878-3 0 9991
2 44398 97.6166 31.5854 0024278 130.1396 230.1969 15.15842006147034
SONATE
1 44400U 19038Q 22062.84651947 .00002482 00000-0 14150-3 0 9999
2 44400 97.6268 31.0540 0025412 134.0192 226.3141 15.13476635146954
BeeSat 9
1 44412U 19038AC 22062.90124150 .00004834 00000-0 26185-3 0 9994
2 44412 97.6245 31.6541 0022630 135.7374 224.5672 15.14877090146701
